Flag for Russia Weather past 2 weeks in Barnaul, Russia

57 °F

Partly sunny.

Feels Like: 52 °F
Forecast: 40 / 52 °F
Wind: 31 mph from Southwest

Location: Barnaul Airport

Current Time: Oct 4, 2015 at 4:24:50 PM

Latest Report: Oct 4, 2015 at 4:00 PM

Visibility: N/A

Pressure: 29.27 "Hg

Humidity: 48%

Dew point: 37 °F

Location of BarnaulLocation

Historic Weather in Barnaul — Graph


Barnaul temperature yesterday

Maximum temperature yesterday: 68 °F (at 2:30 PM)
Minimum temperature yesterday: 43 °F (at 2:00 AM)
Average temperature yesterday: 54 °F

Past Weeks' High & Low Weather Summary

High70 °F (Oct 1, 2:00 PM)100% (Sep 26, 3:00 AM)30.54 "Hg (Sep 26, 3:00 AM)
Low30 °F (Sep 27, 6:30 AM)17% (Oct 3, 5:00 PM)29.21 "Hg (Oct 4, 11:30 AM)
Average45 °F73%29.99 "Hg
* Reported Sep 19 3:00 PM — Oct 4 3:00 PM, Barnaul, Weather by CustomWeather, © 2015

Note: Actual official high and low records may vary slightly from our data, if they occured in-between our weather recording intervals... More about our weather records


Barnaul weather history for previous 24 hours

Time TempWeatherWind HumidityBarometerVisibility
3:00 PM
Sun, Oct 4
54 °FPartly sunny.26 mph58%29.27 "HgN/A
2:30 PM54 °FPartly sunny.29 mph58%29.27 "HgN/A
2:00 PM52 °FPartly sunny.26 mph67%29.27 "HgN/A
1:30 PM50 °FSprinkles. Partly sunny.33 mph71%29.27 "Hg6 mi
1:00 PM52 °FSprinkles. Partly sunny.38 mph67%29.27 "Hg4 mi
12:30 PM59 °FPartly sunny.33 mph34%29.24 "HgN/A
12:00 PM59 °FSprinkles. Partly sunny.36 mph31%29.24 "HgN/A
11:30 AM59 °FPartly sunny.36 mph31%29.21 "HgN/A
11:00 AM59 °FPartly sunny.33 mph31%29.24 "HgN/A
9:30 AM54 °FPartly sunny.24 mph41%29.27 "HgN/A
9:00 AM50 °FPartly sunny.20 mph50%29.33 "HgN/A
8:30 AM48 °FPartly sunny.17 mph58%29.36 "HgN/A
8:00 AM48 °FPartly sunny.20 mph58%29.39 "HgN/A
7:30 AM46 °FPartly sunny.15 mph62%29.42 "HgN/A
7:00 AM46 °FPartly sunny.15 mph66%29.45 "HgN/A
6:30 AM46 °FPassing clouds.15 mph66%29.47 "HgN/A
6:00 AM45 °FPassing clouds.15 mph71%29.50 "HgN/A
5:30 AM45 °FPassing clouds.15 mph71%29.50 "HgN/A
5:00 AM46 °FPassing clouds.15 mph66%29.53 "HgN/A
4:30 AM46 °FPassing clouds.17 mph71%29.53 "HgN/A
3:30 AM46 °FPassing clouds.17 mph71%29.56 "HgN/A
3:00 AM46 °FPassing clouds.15 mph71%29.56 "HgN/A
2:30 AM46 °FPassing clouds.15 mph71%29.56 "HgN/A
2:00 AM46 °FPassing clouds.20 mph71%29.56 "HgN/A
1:30 AM46 °FPassing clouds.20 mph71%29.56 "HgN/A
1:00 AM46 °FPassing clouds.15 mph71%29.53 "HgN/A
12:30 AM48 °FPassing clouds.20 mph66%29.53 "HgN/A
12:00 AM48 °FPassing clouds.17 mph66%29.53 "HgN/A
11:30 PM
Sat, Oct 3
46 °FPassing clouds.13 mph71%29.53 "HgN/A
11:00 PM46 °FPassing clouds.24 mph66%29.50 "HgN/A
10:30 PM48 °FPassing clouds.20 mph71%29.50 "HgN/A
10:00 PM50 °FSprinkles. Passing clouds.17 mph71%29.47 "HgN/A
9:30 PM50 °FClear.15 mph71%29.47 "Hg10 mi
9:00 PM50 °FPassing clouds.17 mph76%29.47 "HgN/A
8:30 PM54 °FSprinkles. Passing clouds.24 mph67%29.45 "HgN/A
8:00 PM59 °FSprinkles. Passing clouds.26 mph42%29.42 "HgN/A
7:30 PM63 °FSprinkles. Passing clouds.13 mph30%29.42 "HgN/A
7:00 PM63 °FPassing clouds.10 mph27%29.42 "HgN/A
6:30 PM64 °FPassing clouds.22 mph26%29.42 "HgN/A
6:00 PM64 °FSprinkles. Passing clouds.29 mph24%29.42 "HgN/A
5:30 PM66 °FPartly sunny.13 mph19%29.45 "HgN/A
5:00 PM66 °FPartly sunny.13 mph17%29.45 "HgN/A
4:30 PM66 °FPartly sunny.17 mph22%29.45 "HgN/A
4:00 PM66 °FSunny.13 mph18%29.45 "Hg10 mi
Weather by CustomWeather, © 2015

See weather overviewHow to use our weather pages